Date String (YYYY-MM-DD hh:mm:ss) UTC,Instrument flags,absolute air pressure of the measurement (hPa),sample flow rate (lpm),inlet stack bypass flow (lpm),air temperature of the measurement (°C),ambient temperature measured by the external sensor (°C),aerosol sample conditioner tube jacket temperature (°C),OPC LED temperature (°C),internal box temperature (°C),relative humidity of the measurement (%),span deviation,mass concentration of particles derived from Lorenz-Mie calculation of OPC scattering (μg/m³),mass concentration of particles derived from Lorenz-Mie calculation of OPC scattering (μg/m³),mass concentration of particles derived from Lorenz-Mie calculation of OPC scattering (μg/m³)
DateTimeUTC,F1_M11,P_M11,Q1_M11,Q2_M11,T1_M11,T2_M11,T3_M11,T4_M11,T5_M11,U1_M11,ZSPAN_M11,X2_M11,X0_M11,X1_M11
2023-12-19 08:00:00,SystemResetWarning,0825.0,5.00,000.00,022.6,021.7,000.0,030.9,024.0,5.2,0000.0,0000.25,0000.32,0000.23
2023-12-19 08:01:00,SystemResetWarning,0825.0,5.01,000.00,022.6,021.7,000.0,030.9,024.0,5.5,0000.0,0000.26,0000.40,0000.23
2023-12-19 08:02:00,SystemResetWarning,0825.1,5.00,000.00,022.6,021.8,000.0,030.9,024.0,5.7,0000.0,0000.27,0000.42,0000.23
2023-12-19 08:03:00,SystemResetWarning,0825.1,5.00,000.00,022.6,021.8,000.0,030.9,024.0,5.7,0000.0,0000.27,0000.43,0000.23
2023-12-19 08:04:00,SystemResetWarning,0825.1,5.01,000.00,022.6,021.8,000.0,030.9,024.1,5.7,0000.0,0000.27,0000.43,0000.23
2023-12-19 08:05:00,SystemResetWarning,0825.0,4.99,000.00,022.6,021.8,000.0,030.9,024.1,5.6,0000.0,0000.28,0000.48,0000.23
2023-12-19 08:06:00,SystemResetWarning,0824.9,5.00,000.00,022.6,021.8,000.0,030.9,024.1,5.6,0000.0,0000.31,0000.56,0000.23
2023-12-19 08:07:00,SystemResetWarning,0824.9,5.01,000.00,022.6,021.8,000.0,030.9,024.1,5.4,0000.0,0000.32,0000.60,0000.24
2023-12-19 08:08:00,SystemResetWarning,0825.0,5.00,000.00,022.6,021.9,000.0,030.9,024.1,5.4,0000.0,0000.33,0000.62,0000.23
2023-12-19 08:09:00,SystemResetWarning,0825.1,5.00,000.00,022.6,021.9,000.0,030.9,024.1,5.4,0000.0,0000.34,0000.63,0000.24
2023-12-19 08:10:00,SystemResetWarning,0824.9,5.00,000.00,022.7,021.9,000.0,030.9,024.1,5.3,0000.0,0000.34,0000.64,0000.25
2023-12-19 08:11:00,SystemResetWarning,0824.9,5.00,000.00,022.7,021.9,000.0,030.9,024.0,5.4,0000.0,0000.35,0000.65,0000.25
2023-12-19 08:12:00,SystemResetWarning,0824.9,5.00,000.00,022.6,021.9,000.0,030.9,024.0,5.5,0000.0,0000.33,0000.59,0000.25
2023-12-19 08:13:00,SystemResetWarning,0824.9,5.00,000.00,022.6,021.9,000.0,030.9,024.0,5.5,0000.0,0000.32,0000.53,0000.24
2023-12-19 08:14:00,SystemResetWarning,0824.9,5.00,000.00,022.6,021.9,000.0,030.9,023.9,5.4,0000.0,0000.31,0000.50,0000.25
2023-12-19 08:15:00,SystemResetWarning,0824.9,5.00,000.00,022.6,021.8,000.0,030.9,024.0,5.4,0000.0,0000.33,0000.51,0000.25
2023-12-19 08:16:00,SystemResetWarning,0824.9,5.00,000.00,022.6,021.8,000.0,030.9,024.0,5.2,0000.0,0000.32,0000.46,0000.25
2023-12-19 08:17:00,SystemResetWarning,0824.8,5.00,000.00,022.6,021.8,000.0,030.9,023.9,5.1,0000.0,0000.31,0001.15,0000.25
2023-12-19 08:18:00,SystemResetWarning,0824.9,5.00,000.00,022.6,021.8,000.0,030.9,023.9,5.1,0000.0,0000.32,0001.17,0000.25
2023-12-19 08:19:00,SystemResetWarning,0824.9,5.00,000.00,022.6,021.8,000.0,030.9,023.9,5.3,0000.0,0000.32,0001.18,0000.25
2023-12-19 08:20:00,SystemResetWarning,0824.9,5.00,000.00,022.6,021.8,000.0,030.9,023.9,5.4,0000.0,0000.34,0001.23,0000.26
2023-12-19 08:21:00,SystemResetWarning,0824.9,5.00,000.00,022.6,021.8,000.0,030.9,023.9,5.3,0000.0,0000.33,0001.22,0000.26
2023-12-19 08:22:00,SystemResetWarning,0824.9,5.01,000.00,022.6,021.8,000.0,030.9,023.9,5.3,0000.0,0000.33,0001.21,0000.25
2023-12-19 08:23:00,SystemResetWarning,0824.9,5.01,000.00,022.6,021.8,000.0,030.9,023.9,5.3,0000.0,0000.36,0001.48,0000.26
2023-12-19 08:24:00,SystemResetWarning,0824.9,5.00,000.00,022.5,021.8,000.0,030.9,023.8,5.4,0000.0,0000.40,0001.72,0000.26
2023-12-19 08:25:00,SystemResetWarning,0824.9,4.99,000.00,022.5,021.8,000.0,030.9,023.8,5.4,0000.0,0000.40,0001.74,0000.26
2023-12-19 08:26:00,SystemResetWarning,0824.7,4.99,000.00,022.5,021.8,000.0,030.9,023.8,5.3,0000.0,0000.41,0001.75,0000.27
2023-12-19 08:27:00,SystemResetWarning,0824.8,4.99,000.00,022.5,021.8,000.0,030.9,023.8,5.3,0000.0,0000.43,0001.78,0000.27
2023-12-19 08:28:00,SystemResetWarning,0824.9,5.01,000.00,022.5,021.8,000.0,030.9,023.8,5.3,0000.0,0000.40,0001.02,0000.27
2023-12-19 08:29:00,SystemResetWarning,0825.0,5.00,000.00,022.5,021.8,000.0,030.9,023.8,5.2,0000.0,0000.38,0000.97,0000.27
2023-12-19 08:30:00,SystemResetWarning,0825.0,5.00,000.00,022.5,021.8,000.0,030.9,023.8,5.4,0000.0,0000.38,0001.03,0000.27
2023-12-19 08:31:00,SystemResetWarning,0824.9,4.99,000.00,022.5,021.8,000.0,030.9,023.9,5.3,0000.0,0000.37,0001.01,0000.27
2023-12-19 08:32:00,SystemResetWarning,0824.9,5.00,000.00,022.5,021.7,000.0,030.8,023.9,5.3,0000.0,0000.38,0001.02,0000.27
2023-12-19 08:33:00,SystemResetWarning,0825.0,5.00,000.00,022.5,021.7,000.0,030.8,023.9,5.3,0000.0,0000.38,0001.03,0000.27
2023-12-19 08:34:00,SystemResetWarning,0824.9,5.00,000.00,022.5,021.7,000.0,030.8,023.9,5.4,0000.0,0000.35,0000.75,0000.27
2023-12-19 08:35:00,SystemResetWarning,0824.9,5.01,000.00,022.5,021.7,000.0,030.8,023.9,5.2,0000.0,0000.33,0000.55,0000.27
2023-12-19 08:36:00,SystemResetWarning,0824.9,5.00,000.00,022.5,021.7,000.0,030.8,023.8,5.3,0000.0,0000.33,0000.68,0000.28
2023-12-19 08:37:00,SystemResetWarning,0824.9,5.00,000.00,022.5,021.7,000.0,030.8,023.8,5.3,0000.0,0000.34,0000.77,0000.28
2023-12-19 08:38:00,SystemResetWarning,0824.8,5.00,000.00,022.5,021.7,000.0,030.8,023.8,5.4,0000.0,0000.35,0000.79,0000.28
2023-12-19 08:39:00,SystemResetWarning,0824.7,5.01,000.00,022.5,021.7,000.0,030.8,023.8,5.4,0000.0,0000.36,0000.83,0000.29
2023-12-19 08:40:00,SystemResetWarning,0824.7,5.00,000.00,022.5,021.7,000.0,030.8,023.9,5.4,0000.0,0000.39,0000.98,0000.30
2023-12-19 08:41:00,SystemResetWarning,0824.6,5.00,000.00,022.5,021.7,000.0,030.8,023.9,5.4,0000.0,0000.40,0002.07,0000.30
2023-12-19 08:42:00,SystemResetWarning,0824.7,5.00,000.00,022.6,021.7,000.0,030.8,023.9,5.4,0000.0,0000.40,0002.52,0000.30
2023-12-19 08:43:00,SystemResetWarning,0824.7,5.00,000.00,022.6,021.7,000.0,030.8,023.9,5.5,0000.0,0000.42,0002.69,0000.31
2023-12-19 08:44:00,SystemResetWarning,0824.7,5.00,000.00,022.6,021.7,000.0,030.8,023.9,5.6,0000.0,0000.43,0002.73,0000.31
2023-12-19 08:45:00,SystemResetWarning,0824.8,5.00,000.00,022.6,021.6,000.0,030.8,023.8,5.8,0000.0,0000.45,0002.77,0000.32
2023-12-19 08:46:00,SystemResetWarning,0824.8,5.00,000.00,022.6,021.6,000.0,030.8,023.8,5.8,0000.0,0000.48,0002.79,0000.33
2023-12-19 08:47:00,SystemResetWarning,0824.7,5.00,000.00,022.6,021.6,000.0,030.8,023.8,5.7,0000.0,0000.47,0002.72,0000.33
2023-12-19 08:48:00,SystemResetWarning,0824.6,5.00,000.00,022.6,021.6,000.0,030.8,023.8,5.6,0000.0,0000.49,0002.72,0000.33
2023-12-19 08:49:00,SystemResetWarning,0824.7,5.01,000.00,022.6,021.6,000.0,030.9,023.9,5.5,0000.0,0000.48,0002.68,0000.33
2023-12-19 08:50:00,SystemResetWarning,0824.7,5.01,000.00,022.6,021.6,000.0,030.8,023.9,5.5,0000.0,0000.47,0003.57,0000.33
2023-12-19 08:51:00,SystemResetWarning,0824.8,5.00,000.00,022.6,021.6,000.0,030.9,023.9,5.5,0000.0,0000.44,0004.23,0000.32
2023-12-19 08:52:00,SystemResetWarning,0824.8,4.99,000.00,022.6,021.6,000.0,030.9,023.8,5.5,0000.0,0000.45,0003.95,0000.32
2023-12-19 08:53:00,SystemResetWarning,0824.7,4.99,000.00,022.6,021.6,000.0,030.9,023.8,5.5,0000.0,0000.47,0003.54,0000.32
2023-12-19 08:54:00,SystemResetWarning,0824.6,5.02,000.00,022.6,021.6,000.0,030.9,023.8,5.4,0000.0,0000.50,0003.49,0000.32
2023-12-19 08:55:00,SystemResetWarning,0824.7,4.99,000.00,022.6,021.6,000.0,030.9,023.9,5.4,0000.0,0000.52,0003.45,0000.32
2023-12-19 08:56:00,SystemResetWarning,0824.7,4.99,000.00,022.6,021.6,000.0,030.8,023.9,5.3,0000.0,0000.54,0003.48,0000.32
2023-12-19 08:57:00,SystemResetWarning,0824.7,5.00,000.00,022.6,021.6,000.0,030.8,023.9,5.4,0000.0,0000.55,0003.56,0000.33
2023-12-19 08:58:00,SystemResetWarning,0824.7,5.00,000.00,022.6,021.6,000.0,030.9,023.9,5.4,0000.0,0000.55,0003.60,0000.33
2023-12-19 08:59:00,SystemResetWarning,0824.7,5.01,000.00,022.6,021.6,000.0,030.9,023.8,5.3,0000.0,0000.56,0003.63,0000.33
